This demonstration page uses our WeatherBlox Daily Observations layout. Learn more.

Left ArrowRight Arrow

Hourly Observations for January 8, 2015

Temp ( °F °C ) Dew Point ( °F °C ) Humidity (%) Winds ( mph kmh ) Pressure ( in mb ) Visibility ( mi km ) Precip ( " mm )
12:15 am 00:15 Clear -6 -21 -18 -28 54 54 W 8 13 30.83 1044 10 16.0934 N/A
12:36 am 00:36 Clear -6 -21 -18 -28 54 54 W 10 17 30.83 1044 10 16.0934 N/A
12:55 am 00:55 Clear -6 -21 -17 -27 59 59 W 9 15 30.8 1043 10 16.0934 N/A
1:15 am 01:15 Clear -6 -21 -17 -27 59 59 WSW 9 15 30.8 1043 10 16.0934 N/A
1:35 am 01:35 Clear -6 -21 -17 -27 59 59 W 9 15 30.8 1043 10 16.0934 N/A
1:55 am 01:55 Clear -6 -21 -18 -28 54 54 W 9 15 30.8 1043 10 16.0934 N/A
2:16 am 02:16 Clear -6 -21 -18 -28 54 54 W 10 17 30.8 1043 10 16.0934 N/A
2:35 am 02:35 Clear -6 -21 -18 -28 54 54 WSW 9 15 30.8 1043 10 16.0934 N/A
2:55 am 02:55 Clear -6 -21 -18 -28 54 54 WSW 10 17 30.8 1043 10 16.0934 N/A
3:15 am 03:15 Clear -6 -21 -18 -28 54 54 W 10 17 30.8 1043 10 16.0934 N/A
3:35 am 03:35 Clear -6 -21 -18 -28 54 54 WSW 9 15 30.8 1043 10 16.0934 N/A
3:56 am 03:56 Clear -6 -21 -18 -28 54 54 WSW 8 13 30.77 1042 10 16.0934 N/A
4:15 am 04:15 Clear -8 -22 -18 -28 58 58 WSW 7 11 30.8 1043 10 16.0934 N/A
4:35 am 04:35 Clear -6 -21 -18 -28 54 54 WSW 9 15 30.77 1042 10 16.0934 N/A
4:55 am 04:55 Clear -6 -21 -18 -28 54 54 WSW 8 13 30.77 1042 10 16.0934 N/A
5:15 am 05:15 Clear -6 -21 -18 -28 54 54 WSW 8 13 30.74 1041 10 16.0934 N/A
5:35 am 05:35 Clear -8 -22 -18 -28 58 58 SW 5 7 30.71 1040 10 16.0934 N/A
5:55 am 05:55 Clear -8 -22 -17 -27 64 64 SW 7 11 30.71 1040 10 16.0934 N/A
6:15 am 06:15 Clear -6 -21 -17 -27 59 59 SSW 5 7 30.71 1040 10 16.0934 N/A
6:35 am 06:35 Mostly Cloudy -8 -22 -17 -27 64 64 SSW 3 6 30.71 1040 2.5 4.02335 N/A
6:55 am 06:55 Mostly Cloudy -8 -22 -17 -27 64 64 S 5 7 30.68 1039 5 8.0467 N/A
7:15 am 07:15 Partly Cloudy -8 -22 -17 -27 64 64 S 6 9 30.65 1038 10 16.0934 N/A
7:35 am 07:35 Clear -8 -22 -17 -27 64 64 S 5 7 30.65 1038 10 16.0934 N/A
7:55 am 07:55 Clear -8 -22 -17 -27 64 64 SSW 6 9 30.65 1038 10 16.0934 N/A
8:15 am 08:15 Sunny -6 -21 -17 -27 59 59 SSW 7 11 30.65 1038 7 11.26538 N/A
8:35 am 08:35 Sunny -6 -21 -15 -26 64 64 SSW 9 15 30.65 1038 10 16.0934 N/A
8:56 am 08:56 Sunny -4 -20 -15 -26 59 59 SSW 9 15 30.65 1038 10 16.0934 N/A
9:15 am 09:15 Sunny -4 -20 -15 -26 59 59 SSW 9 15 30.65 1038 10 16.0934 N/A
9:35 am 09:35 Sunny -2 -19 -13 -25 59 59 SSW 12 19 30.65 1038 10 16.0934 N/A
9:55 am 09:55 Sunny -2 -19 -13 -25 59 59 SSW 10 17 30.62 1037 10 16.0934 N/A
10:15 am 10:15 Sunny 0 -18 -13 -25 54 54 S 7 11 30.62 1037 10 16.0934 N/A
10:35 am 10:35 Sunny 0 -18 -13 -25 54 54 SSW 12 19 30.59 1036 10 16.0934 N/A
10:55 am 10:55 Sunny 1 -17 -13 -25 50 50 SSW 10 17 30.59 1036 10 16.0934 N/A
11:16 am 11:16 Sunny 1 -17 -13 -25 50 50 SSW 12 19 30.56 1035 10 16.0934 N/A
11:35 am 11:35 Sunny 1 -17 -11 -24 55 55 S 14 22 30.53 1034 10 16.0934 N/A
11:55 am 11:55 Sunny 3 -16 -11 -24 50 50 SSW 14 22 30.48 1032 10 16.0934 N/A
12:15 pm 12:15 Sunny 3 -16 -11 -24 50 50 S 15 24 30.45 1031 10 16.0934 N/A
12:35 pm 12:35 Sunny 5 -15 -11 -24 46 46 S 12 19 30.42 1030 10 16.0934 N/A
12:56 pm 12:56 Sunny 5 -15 -11 -24 46 46 S 16 26 30.39 1029 10 16.0934 N/A
1:15 pm 13:15 Sunny 7 -14 -9 -23 47 47 S 15 24 30.39 1029 10 16.0934 N/A
1:35 pm 13:35 Sunny 9 -13 -9 -23 43 43 SSW 13 20 30.36 1028 10 16.0934 N/A
1:55 pm 13:55 Sunny 9 -13 -9 -23 43 43 SSW 14 22 30.36 1028 10 16.0934 N/A
2:15 pm 14:15 Sunny 9 -13 -9 -23 43 43 SSW 15 24 30.36 1028 10 16.0934 N/A
2:35 pm 14:35 Sunny 9 -13 -8 -22 47 47 S 13 20 30.33 1027 10 16.0934 N/A
2:56 pm 14:56 Sunny 9 -13 -8 -22 47 47 S 12 19 30.3 1026 10 16.0934 N/A
3:15 pm 15:15 Sunny 10 -12 -9 -23 40 40 SSW 16 26 30.3 1026 10 16.0934 N/A
3:35 pm 15:35 Sunny 10 -12 -8 -22 44 44 SSW 12 19 30.3 1026 10 16.0934 N/A
3:55 pm 15:55 Sunny 10 -12 -8 -22 44 44 SSW 16 26 30.27 1025 10 16.0934 N/A
4:15 pm 16:15 Sunny 12 -11 -8 -22 40 40 S 18 30 30.21 1023 10 16.0934 N/A
4:36 pm 16:36 Sunny 12 -11 -8 -22 40 40 S 21 33 30.21 1023 10 16.0934 N/A
4:55 pm 16:55 Sunny 12 -11 -8 -22 40 40 S 16 26 30.18 1022 10 16.0934 N/A
5:15 pm 17:15 Partly Cloudy 12 -11 -6 -21 44 44 S 16 26 30.15 1021 10 16.0934 N/A
5:35 pm 17:35 Partly Cloudy 12 -11 -6 -21 44 44 S 17 28 30.12 1020 10 16.0934 N/A
5:55 pm 17:55 Partly Cloudy 12 -11 -6 -21 44 44 S 21 33 30.12 1020 10 16.0934 N/A
6:16 pm 18:16 Partly Cloudy 14 -10 -6 -21 41 41 S 20 31 30.09 1019 10 16.0934 N/A
6:35 pm 18:35 Partly Cloudy 14 -10 -8 -22 37 37 S 18 30 30.09 1019 10 16.0934 N/A
6:55 pm 18:55 Partly Cloudy 14 -10 -8 -22 37 37 SSW 18 30 30.09 1019 10 16.0934 N/A
7:15 pm 19:15 Partly Cloudy 14 -10 -8 -22 37 37 SW 15 24 30.12 1020 10 16.0934 N/A
7:35 pm 19:35 Cloudy 14 -10 -2 -19 48 48 SSW 15 24 30.12 1020 2.5 4.02335 N/A
7:56 pm 19:56 Cloudy 14 -10 1 -17 57 57 SSW 14 22 30.12 1020 5 8.0467 N/A
8:15 pm 20:15 Partly Cloudy 16 -9 1 -17 53 53 SW 18 30 30.09 1019 10 16.0934 N/A
8:35 pm 20:35 Mostly Cloudy 16 -9 1 -17 53 53 SW 18 30 30.09 1019 10 16.0934 N/A
8:55 pm 20:55 Cloudy 16 -9 1 -17 53 53 SW 21 33 30.09 1019 10 16.0934 N/A
9:15 pm 21:15 Cloudy 16 -9 0 -18 48 48 SW 20 31 30.09 1019 10 16.0934 N/A
9:36 pm 21:36 Mostly Cloudy 16 -9 0 -18 48 48 SW 18 30 30.09 1019 10 16.0934 N/A
9:55 pm 21:55 Mostly Cloudy 18 -8 -2 -19 41 41 SW 21 33 30.06 1018 10 16.0934 N/A
10:15 pm 22:15 Mostly Cloudy 19 -7 -2 -19 38 38 SW 21 33 30.06 1018 7 11.26538 N/A
10:35 pm 22:35 Mostly Cloudy 19 -7 -2 -19 38 38 SW 20 31 30.06 1018 7 11.26538 N/A
10:55 pm 22:55 Partly Cloudy 19 -7 -2 -19 38 38 SW 20 31 30.06 1018 10 16.0934 N/A
11:16 pm 23:16 Partly Cloudy 19 -7 0 -18 42 42 SW 20 31 30.03 1017 10 16.0934 N/A
11:35 pm 23:35 Partly Cloudy 19 -7 0 -18 42 42 SW 18 30 30.03 1017 7 11.26538 N/A
11:55 pm 23:55 Partly Cloudy 21 -6 0 -18 38 38 SW 21 33 30.03 1017 7 11.26538 N/A

Powered by AerisWeather